When you browse on this site, cookies collect data to enhance your experience and personalize the content and advertising you see.
Visit our Privacy Policy to learn more. By continuing to use the site, you agree to this use of cookies and data.
  • In Österreich
  • Länderverzeichnis
  • Für 7 Tage
  • Wassertemperatur
  • Wetterkarte
  • News
  • Widgets
  • user-avatar
    Anmelden

    Stündliche Wetter Ozernica

    Heute, 15 September, Sonntag

    Zeit Temperatur Niederschläge Wind Luftdruck Luftfeuchtigkeit
    00:00 +9°C° 0 mm 2 m/S 757 mmHg 88%
    01:00 +9°C° 0 mm 2 m/S 757 mmHg 89%
    02:00 +8°C° 0 mm 2 m/S 757 mmHg 91%
    03:00 +8°C° 0 mm 2 m/S 757 mmHg 91%
    04:00 +8°C° 0 mm 2 m/S 757 mmHg 92%
    05:00 +8°C° 0 mm 2 m/S 757 mmHg 92%
    06:00 +9°C° 0 mm 2 m/S 757 mmHg 86%
    07:00 +10°C° 0 mm 3 m/S 756 mmHg 81%
    08:00 +11°C° 0 mm 3 m/S 756 mmHg 75%
    09:00 +13°C° 0 mm 4 m/S 756 mmHg 69%
    10:00 +14°C° 0 mm 5 m/S 755 mmHg 63%
    11:00 +16°C° 0 mm 5 m/S 755 mmHg 57%
    12:00 +16°C° 0 mm 6 m/S 754 mmHg 55%
    13:00 +17°C° 0 mm 6 m/S 753 mmHg 54%
    14:00 +17°C° 0 mm 6 m/S 753 mmHg 52%
    15:00 +17°C° 0 mm 6 m/S 752 mmHg 53%
    16:00 +16°C° 0 mm 5 m/S 751 mmHg 54%
    17:00 +16°C° 0 mm 5 m/S 750 mmHg 55%
    18:00 +15°C° 0 mm 5 m/S 750 mmHg 56%
    19:00 +15°C° 0 mm 5 m/S 749 mmHg 56%
    20:00 +14°C° 0 mm 6 m/S 749 mmHg 57%
    21:00 +14°C° 0 mm 5 m/S 748 mmHg 58%
    22:00 +14°C° 0 mm 5 m/S 748 mmHg 59%
    23:00 +14°C° 0 mm 5 m/S 747 mmHg 59%

    Morgen, 16 September, Montag

    Zeit Temperatur Niederschläge Wind Luftdruck Luftfeuchtigkeit
    00:00 +14°C° 0 mm 5 m/S 747 mmHg 61%
    01:00 +14°C° 0 mm 5 m/S 747 mmHg 62%
    02:00 +15°C° 0 mm 5 m/S 746 mmHg 64%
    03:00 +15°C° 0 mm 5 m/S 746 mmHg 63%
    04:00 +15°C° 0 mm 5 m/S 746 mmHg 62%
    05:00 +15°C° 0 mm 5 m/S 746 mmHg 61%
    06:00 +15°C° 0 mm 6 m/S 746 mmHg 61%
    07:00 +15°C° 0 mm 6 m/S 746 mmHg 61%
    08:00 +15°C° 0 mm 6 m/S 746 mmHg 62%
    09:00 +16°C° 0 mm 7 m/S 746 mmHg 58%
    10:00 +16°C° 0 mm 7 m/S 746 mmHg 55%
    11:00 +17°C° 0 mm 7 m/S 746 mmHg 52%
    12:00 +17°C° 0 mm 7 m/S 746 mmHg 51%
    13:00 +17°C° 0 mm 7 m/S 746 mmHg 50%
    14:00 +17°C° 0 mm 7 m/S 746 mmHg 49%
    15:00 +16°C° 0 mm 7 m/S 746 mmHg 53%
    16:00 +15°C° 0 mm 6 m/S 746 mmHg 56%
    17:00 +14°C° 0 mm 6 m/S 745 mmHg 59%
    18:00 +13°C° 0 mm 5 m/S 745 mmHg 62%
    19:00 +12°C° 0 mm 5 m/S 745 mmHg 66%
    20:00 +10°C° 0 mm 4 m/S 745 mmHg 69%
    21:00 +10°C° 0 mm 4 m/S 745 mmHg 70%
    22:00 +10°C° 0 mm 4 m/S 745 mmHg 71%
    23:00 +8°C° 0 mm 4 m/S 745 mmHg 73%

    übermorgen, 17 September, Dienstag

    Zeit Temperatur Niederschläge Wind Luftdruck Luftfeuchtigkeit
    00:00 +8°C° 0 mm 4 m/S 745 mmHg 75%
    01:00 +7°C° 0 mm 4 m/S 745 mmHg 78%
    02:00 +7°C° 0 mm 3 m/S 744 mmHg 81%
    03:00 +7°C° 0 mm 3 m/S 744 mmHg 84%
    04:00 +7°C° 0 mm 3 m/S 744 mmHg 86%
    05:00 +5°C° 0 mm 3 m/S 744 mmHg 89%
    06:00 +6°C° 0 mm 4 m/S 744 mmHg 83%
    07:00 +7°C° 0 mm 5 m/S 743 mmHg 78%
    08:00 +8°C° 0 mm 5 m/S 743 mmHg 73%
    09:00 +10°C° 0 mm 6 m/S 743 mmHg 67%
    10:00 +11°C° 0 mm 6 m/S 743 mmHg 61%
    11:00 +14°C° 0 mm 7 m/S 743 mmHg 55%
    12:00 +14°C° 0.1 mm 7 m/S 743 mmHg 54%
    13:00 +14°C° 0.1 mm 7 m/S 742 mmHg 53%
    14:00 +15°C° 0.1 mm 7 m/S 742 mmHg 52%
    15:00 +14°C° 0.1 mm 6 m/S 742 mmHg 55%
    16:00 +14°C° 0.1 mm 6 m/S 741 mmHg 58%
    17:00 +13°C° 0.1 mm 5 m/S 741 mmHg 62%
    18:00 +12°C° 0.2 mm 5 m/S 741 mmHg 67%
    19:00 +10°C° 0.2 mm 5 m/S 741 mmHg 73%
    20:00 +8°C° 0.2 mm 4 m/S 741 mmHg 79%
    21:00 +8°C° 0.4 mm 4 m/S 741 mmHg 82%
    22:00 +7°C° 0.4 mm 5 m/S 740 mmHg 85%
    23:00 +6°C° 0.4 mm 5 m/S 740 mmHg 88%

    18 September, Mittwoch

    Zeit Temperatur Niederschläge Wind Luftdruck Luftfeuchtigkeit
    00:00 +6°C° 0 mm 5 m/S 740 mmHg 88%
    01:00 +6°C° 0 mm 5 m/S 740 mmHg 88%
    02:00 +4°C° 0 mm 6 m/S 740 mmHg 88%
    03:00 +4°C° 0 mm 6 m/S 740 mmHg 88%
    04:00 +4°C° 0 mm 6 m/S 740 mmHg 87%
    05:00 +4°C° 0 mm 7 m/S 740 mmHg 86%
    06:00 +4°C° 0 mm 7 m/S 741 mmHg 85%
    07:00 +5°C° 0 mm 7 m/S 741 mmHg 83%
    08:00 +5°C° 0 mm 7 m/S 741 mmHg 82%
    09:00 +6°C° 0 mm 7 m/S 742 mmHg 78%
    10:00 +6°C° 0 mm 7 m/S 743 mmHg 74%
    11:00 +8°C° 0 mm 6 m/S 743 mmHg 70%
    12:00 +9°C° 0.1 mm 6 m/S 743 mmHg 67%
    13:00 +10°C° 0.1 mm 7 m/S 744 mmHg 63%
    14:00 +11°C° 0.1 mm 7 m/S 744 mmHg 60%
    15:00 +11°C° 0.3 mm 7 m/S 744 mmHg 67%
    16:00 +10°C° 0.3 mm 7 m/S 744 mmHg 74%
    17:00 +9°C° 0.3 mm 7 m/S 745 mmHg 81%
    18:00 +8°C° 0 mm 6 m/S 745 mmHg 83%
    19:00 +8°C° 0 mm 5 m/S 746 mmHg 85%
    20:00 +7°C° 0 mm 5 m/S 746 mmHg 87%
    21:00 +7°C° 0 mm 5 m/S 747 mmHg 90%
    22:00 +7°C° 0 mm 4 m/S 747 mmHg 92%
    23:00 +6°C° 0 mm 4 m/S 747 mmHg 94%

    19 September, Donnerstag

    Zeit Temperatur Niederschläge Wind Luftdruck Luftfeuchtigkeit
    00:00 +6°C° 0 mm 4 m/S 748 mmHg 95%
    01:00 +6°C° 0 mm 4 m/S 748 mmHg 96%
    02:00 +5°C° 0 mm 4 m/S 748 mmHg 96%
    03:00 +5°C° 0 mm 4 m/S 748 mmHg 96%
    04:00 +5°C° 0 mm 4 m/S 749 mmHg 97%
    05:00 +4°C° 0 mm 4 m/S 749 mmHg 97%
    06:00 +5°C° 0 mm 4 m/S 749 mmHg 93%
    07:00 +6°C° 0 mm 4 m/S 749 mmHg 90%
    08:00 +6°C° 0 mm 4 m/S 750 mmHg 87%
    09:00 +7°C° 0 mm 4 m/S 750 mmHg 79%
    10:00 +10°C° 0 mm 4 m/S 750 mmHg 71%
    11:00 +11°C° 0 mm 4 m/S 751 mmHg 64%
    12:00 +11°C° 0.4 mm 4 m/S 750 mmHg 64%
    13:00 +12°C° 0.4 mm 4 m/S 750 mmHg 65%
    14:00 +12°C° 0.4 mm 4 m/S 750 mmHg 65%
    15:00 +12°C° 0.4 mm 4 m/S 750 mmHg 67%
    16:00 +12°C° 0.4 mm 4 m/S 750 mmHg 68%
    17:00 +11°C° 0.4 mm 4 m/S 750 mmHg 69%
    18:00 +10°C° 0 mm 3 m/S 750 mmHg 74%
    19:00 +8°C° 0 mm 3 m/S 750 mmHg 79%
    20:00 +7°C° 0 mm 3 m/S 750 mmHg 85%
    21:00 +5°C° 0 mm 3 m/S 750 mmHg 86%
    22:00 +5°C° 0 mm 3 m/S 751 mmHg 87%
    23:00 +4°C° 0 mm 3 m/S 751 mmHg 89%

    20 September, Freitag

    Zeit Temperatur Niederschläge Wind Luftdruck Luftfeuchtigkeit
    00:00 +4°C° 0 mm 3 m/S 750 mmHg 90%
    01:00 +3°C° 0 mm 3 m/S 750 mmHg 91%
    02:00 +2°C° 0 mm 3 m/S 750 mmHg 92%
    03:00 +3°C° 0.1 mm 3 m/S 750 mmHg 92%
    04:00 +4°C° 0.1 mm 3 m/S 750 mmHg 91%
    05:00 +4°C° 0.1 mm 3 m/S 750 mmHg 90%
    06:00 +5°C° 0.2 mm 3 m/S 751 mmHg 90%
    07:00 +5°C° 0.2 mm 4 m/S 751 mmHg 89%
    08:00 +5°C° 0.2 mm 5 m/S 751 mmHg 88%
    09:00 +5°C° 0.1 mm 5 m/S 752 mmHg 86%
    10:00 +6°C° 0.1 mm 5 m/S 753 mmHg 84%
    11:00 +6°C° 0.1 mm 5 m/S 753 mmHg 82%
    12:00 +7°C° 0.1 mm 5 m/S 753 mmHg 74%
    13:00 +8°C° 0.1 mm 5 m/S 753 mmHg 66%
    14:00 +9°C° 0.1 mm 5 m/S 754 mmHg 59%
    15:00 +9°C° 0.3 mm 5 m/S 754 mmHg 61%
    16:00 +10°C° 0.3 mm 4 m/S 754 mmHg 64%
    17:00 +9°C° 0.3 mm 3 m/S 754 mmHg 66%
    18:00 +8°C° 0 mm 3 m/S 755 mmHg 69%
    19:00 +6°C° 0 mm 2 m/S 755 mmHg 72%
    20:00 +4°C° 0 mm 2 m/S 756 mmHg 74%
    21:00 +4°C° 0 mm 2 m/S 756 mmHg 76%
    22:00 +4°C° 0 mm 2 m/S 756 mmHg 78%
    23:00 +3°C° 0 mm 2 m/S 756 mmHg 79%
    Mehr zeigen